Orbital Elements at Epoch 2459000.5 (2020-May-31.0) TDB
Reference: JPL 22 (heliocentric ecliptic J2000)
Element | Value | Uncertainty (1-sigma) | Units |
e | .1918466820705061 | 4.3156e-08 | |
a | 2.357047344248027 | 1.008e-08 | au |
q | 1.904855631770945 | 1.0093e-07 | au |
i | 3.031544235493929 | 5.0946e-06 | deg |
node | 42.81316327752888 | 7.5794e-05 | deg |
peri | 308.4598688555151 | 7.6627e-05 | deg |
M | 288.6733958333854 | 1.176e-05 | deg |
tp | 2459262.378553227244 (2021-Feb-16.87855323) | 4.3875e-05 | TDB |
period | 1321.754768271096 3.62 | 8.4785e-06 2.321e-08 | d yr |
n | .272365198629768 | 1.7471e-09 | deg/d |
Q | 2.809239056725108 | 1.2013e-08 | au |
|
| | Orbit Determination Parameters
Additional Information
|